GOKTURK 2
Last updated on Mon Jun 22 2026 00:02:51 GMT+0000 (Coordinated Universal Time)
1 39030U 12073A 26172.48863488 .00000068 00000+0 16886-4 0 9991
2 39030 97.6820 9.7037 0001389 58.2802 301.8544 14.75545326725147
Next 0 passes for location: London (51.5072 / 0.1276)
No passes found over London.